NK0V Weather Reports


Display with metric or nautical units.
time (UTC)temp
F
wind
direction
speed
MPH
gust
MPH
rain 1hr
in
rain 24hr
in
rain mn
in
humidity
%
barometer
mb
20260901104605 61 0 0.0 1.0 0.00 0.00 0.00 82 1015.7
20260901104059 61 51 0.0 2.0 0.00 0.00 0.00 82 1015.8
20260901103558 62 0 0.0 2.0 0.00 0.00 0.00 81 1015.8
20260901103104 62 0 0.0 2.0 0.00 0.00 0.00 81 1015.6
20260901102558 62 137 0.0 2.0 0.00 0.00 0.00 82 1015.5
20260901102056 62 0 0.0 2.0 0.00 0.00 0.00 82 1015.2
20260901101604 62 0 0.0 1.0 0.00 0.00 0.00 82 1015.2
20260901101058 62 0 0.0 1.0 0.00 0.00 0.00 82 1015.1
20260901100558 62 0 0.0 0.0 0.00 0.00 0.00 82 1015.0
20260901100105 62 0 0.0 0.0 0.00 0.00 0.00 82 1015.0
20260901095557 62 0 0.0 1.0 0.00 0.00 0.00 82 1014.8
20260901095055 62 0 0.0 1.0 0.00 0.00 0.00 82 1014.7
20260901094601 62 0 0.0 1.0 0.00 0.00 0.00 81 1014.7
20260901094059 62 0 0.0 0.0 0.00 0.00 0.00 82 1014.6
20260901093558 62 0 0.0 0.0 0.00 0.00 0.00 81 1014.6
20260901093103 62 0 0.0 1.0 0.00 0.00 0.00 81 1014.5
20260901092555 63 0 0.0 1.0 0.00 0.00 0.00 80 1014.7
20260901092055 63 0 0.0 3.0 0.00 0.00 0.00 80 1014.7
20260901091605 63 0 0.0 3.0 0.00 0.00 0.00 80 1014.6
20260901091054 63 84 0.0 3.0 0.00 0.00 0.00 81 1014.7
20260901090554 63 86 0.0 1.0 0.00 0.00 0.00 81 1014.8
20260901090101 63 0 0.0 2.0 0.00 0.00 0.00 80 1014.6
20260901085556 63 0 0.0 2.0 0.00 0.00 0.00 80 1014.6
20260901085058 63 0 0.0 2.0 0.00 0.00 0.00 80 1014.5
20260901084604 63 0 0.0 0.0 0.00 0.00 0.00 80 1014.5
20260901084058 63 0 0.0 1.0 0.00 0.00 0.00 80 1014.7
20260901083558 63 0 0.0 1.0 0.00 0.00 0.00 80 1014.7
20260901083109 63 0 0.0 1.0 0.00 0.00 0.00 80 1014.7
20260901082557 63 0 0.0 1.0 0.00 0.00 0.00 80 1014.6
20260901082059 63 0 0.0 2.0 0.00 0.00 0.00 81 1014.7
20260901081602 63 0 0.0 2.0 0.00 0.00 0.00 81 1014.7
20260901081058 63 38 1.0 2.0 0.00 0.00 0.00 81 1014.8
20260901080557 63 0 0.0 1.0 0.00 0.00 0.00 81 1014.8
20260901080059 63 105 0.0 1.0 0.00 0.00 0.00 80 1014.9
20260901075558 64 0 0.0 1.0 0.00 0.00 0.00 80 1015.0
20260901075059 64 0 0.0 1.0 0.00 0.00 0.00 79 1015.0
20260901074602 64 105 0.0 1.0 0.00 0.00 0.00 79 1015.1
20260901074057 64 0 0.0 2.0 0.00 0.00 0.00 80 1015.0
20260901073558 64 0 0.0 2.0 0.00 0.00 0.00 79 1015.0
20260901073056 65 105 0.0 2.0 0.00 0.00 0.00 78 1015.1
20260901072557 65 105 0.0 2.0 0.00 0.00 0.00 79 1015.0
20260901072100 65 0 1.0 2.0 0.00 0.00 0.00 79 1015.1
20260901071602 65 0 0.0 1.0 0.00 0.00 0.00 79 1015.1
20260901071056 65 0 0.0 1.0 0.00 0.00 0.00 78 1015.1
20260901070557 65 0 0.0 1.0 0.00 0.00 0.00 78 1015.1
20260901070104 65 0 0.0 1.0 0.00 0.00 0.00 78 1015.3
20260901065558 66 0 0.0 1.0 0.00 0.00 0.00 79 1015.3
20260901065056 66 0 0.0 1.0 0.00 0.00 0.00 78 1015.4
20260901064602 66 0 0.0 1.0 0.00 0.00 0.00 78 1015.3
20260901064056 66 0 0.0 0.0 0.00 0.00 0.00 78 1015.3
20260901063556 66 0 0.0 2.0 0.00 0.00 0.00 79 1015.3
20260901063114 66 0 0.0 2.0 0.00 0.00 0.00 79 1015.3
20260901062556 66 56 0.0 2.0 0.00 0.00 0.00 79 1015.4
20260901062056 66 0 0.0 2.0 0.00 0.00 0.00 79 1015.5
20260901061612 66 0 0.0 1.0 0.00 0.00 0.00 78 1015.4
20260901061058 66 0 0.0 2.0 0.00 0.00 0.00 78 1015.4
20260901060557 66 0 0.0 2.0 0.00 0.00 0.00 78 1015.6
20260901060059 66 55 0.0 2.0 0.00 0.00 0.00 78 1015.6
20260901055557 66 0 0.0 1.0 0.00 0.00 0.00 78 1015.5
20260901055056 66 0 0.0 1.0 0.00 0.00 0.00 78 1015.5
20260901054604 66 0 0.0 1.0 0.00 0.00 0.00 77 1015.5
20260901054057 67 55 0.0 1.0 0.00 0.00 0.00 77 1015.4
20260901053557 67 0 0.0 2.0 0.00 0.00 0.00 77 1015.5
20260901053101 67 0 0.0 2.0 0.00 0.00 0.00 77 1015.5
20260901052556 67 55 1.0 2.0 0.00 0.00 0.00 77 1015.5
20260901052056 67 0 0.0 0.0 0.00 0.00 0.00 77 1015.4
20260901051616 67 0 0.0 0.0 0.00 0.00 0.00 77 1015.3
20260901051056 67 0 0.0 0.0 0.00 0.00 0.00 76 1015.4
20260901050558 67 0 0.0 0.0 0.00 0.00 0.00 75 1015.5
20260901050109 67 0 0.0 0.0 0.00 0.00 0.00 75 1015.5
20260901045556 68 0 0.0 1.0 0.00 0.00 0.00 75 1015.4
20260901045056 68 0 0.0 1.0 0.00 0.00 0.00 75 1015.3
20260901044604 68 0 0.0 1.0 0.00 0.00 0.00 74 1015.4
20260901044057 68 0 0.0 0.0 0.00 0.00 0.00 74 1015.4
20260901043558 68 0 0.0 0.0 0.00 0.00 0.00 75 1015.3
20260901043131 68 0 0.0 0.0 0.00 0.00 0.00 74 1015.4
20260901042557 68 0 0.0 0.0 0.00 0.00 0.00 74 1015.3
20260901042056 68 0 0.0 0.0 0.00 0.00 0.00 73 1015.2
20260901041620 68 0 0.0 0.0 0.00 0.00 0.00 73 1015.2
20260901041056 69 0 0.0 0.0 0.00 0.00 0.00 73 1015.3
20260901040556 69 0 0.0 1.0 0.00 0.00 0.00 73 1015.3
20260901040111 69 0 0.0 2.0 0.00 0.00 0.00 73 1015.2
20260901035556 69 0 0.0 2.0 0.00 0.00 0.00 73 1015.2
20260901035055 69 55 1.0 2.0 0.00 0.00 0.00 72 1015.1
20260901034610 69 55 0.0 1.0 0.00 0.00 0.00 72 1015.2
20260901034056 69 0 0.0 1.0 0.00 0.00 0.00 72 1015.1
20260901033557 69 0 0.0 2.0 0.00 0.00 0.00 72 1015.1
20260901033114 69 0 0.0 2.0 0.00 0.00 0.00 71 1015.1
20260901032558 69 0 0.0 2.0 0.00 0.00 0.00 71 1015.1
20260901032058 70 0 0.0 1.0 0.00 0.00 0.00 71 1015.1
20260901031559 70 0 0.0 0.0 0.00 0.00 0.00 71 1015.0
20260901031056 70 0 0.0 0.0 0.00 0.00 0.00 71 1015.0
20260901030556 71 0 0.0 3.0 0.00 0.00 0.00 71 1014.9
20260901025556 71 0 0.0 3.0 0.00 0.00 0.00 71 1014.8
20260901025056 71 0 0.0 2.0 0.00 0.00 0.00 70 1014.7
20260901024610 72 0 0.0 0.0 0.00 0.00 0.00 70 1014.8
20260901024100 72 0 0.0 0.0 0.00 0.00 0.00 70 1014.7
20260901023555 72 0 0.0 0.0 0.00 0.00 0.00 69 1014.7
20260901023101 73 0 0.0 0.0 0.00 0.00 0.00 70 1014.7
20260901022557 73 0 0.0 0.0 0.00 0.00 0.00 69 1014.6
20260901022058 73 0 0.0 0.0 0.00 0.00 0.00 68 1014.7
20260901021559 73 0 0.0 0.0 0.00 0.00 0.00 67 1014.6
20260901021057 73 0 0.0 0.0 0.00 0.00 0.00 67 1014.6
20260901020559 74 0 0.0 0.0 0.00 0.00 0.00 65 1014.5
20260901015559 74 0 0.0 0.0 0.00 0.00 0.00 65 1014.5
20260901015058 74 0 0.0 0.0 0.00 0.00 0.00 65 1014.3
20260901014607 75 0 0.0 0.0 0.00 0.00 0.00 64 1014.3
20260901014059 75 0 0.0 1.0 0.00 0.00 0.00 64 1014.2
20260901013558 75 0 0.0 1.0 0.00 0.00 0.00 64 1014.1
20260901013100 76 0 0.0 1.0 0.00 0.00 0.00 63 1014.2
20260901012557 76 344 0.0 1.0 0.00 0.00 0.00 63 1014.3
20260901012058 76 0 0.0 1.0 0.00 0.00 0.00 63 1014.3
20260901011559 77 0 0.0 1.0 0.00 0.00 0.00 63 1014.1
20260901011058 77 0 0.0 1.0 0.00 0.00 0.00 63 1014.1
20260901010558 77 0 0.0 1.0 0.00 0.00 0.00 63 1014.1
20260901010100 78 344 0.0 2.0 0.00 0.00 0.00 62 1014.2
20260901005558 78 344 0.0 2.0 0.00 0.00 0.00 61 1014.1
20260901005057 78 0 0.0 2.0 0.00 0.00 0.00 57 1014.2
20260901004617 78 0 0.0 2.0 0.00 0.00 0.00 55 1014.1
20260901004057 79 0 0.0 2.0 0.00 0.00 0.00 54 1014.2
20260901003559 79 0 0.0 2.0 0.00 0.00 0.00 54 1014.1
20260901003059 79 0 0.0 2.0 0.00 0.00 0.00 55 1014.1
20260901002559 79 0 0.0 2.0 0.00 0.00 0.00 55 1014.1
20260901002058 79 329 0.0 2.0 0.00 0.00 0.00 55 1014.0
20260901001605 79 355 0.0 2.0 0.00 0.00 0.00 55 1014.0
20260901001057 80 324 0.0 2.0 0.00 0.00 0.00 55 1014.0
20260901000601 80 318 0.0 2.0 0.00 0.00 0.00 54 1014.0
20260901000110 80 309 0.0 2.0 0.00 0.00 0.00 54 1014.0
20260831235558 80 355 0.0 2.0 0.00 0.00 0.00 54 1014.0
20260831235057 80 0 0.0 2.0 0.00 0.00 0.00 53 1014.0
20260831234558 80 0 0.0 1.0 0.00 0.00 0.00 52 1014.0
20260831234058 81 0 0.0 2.0 0.00 0.00 0.00 51 1014.1
20260831233559 81 0 0.0 2.0 0.00 0.00 0.00 50 1014.2
20260831233059 81 320 0.0 2.0 0.00 0.00 0.00 49 1014.2
20260831232558 81 0 0.0 3.0 0.00 0.00 0.00 48 1014.3
20260831232058 81 0 0.0 3.0 0.00 0.00 0.00 47 1014.3
20260831231610 82 32 0.0 3.0 0.00 0.00 0.00 46 1014.2
20260831231058 82 316 1.0 5.0 0.00 0.00 0.00 46 1014.2
20260831230556 82 0 1.0 5.0 0.00 0.00 0.00 46 1014.3
20260831230059 82 318 1.0 3.0 0.00 0.00 0.00 45 1014.3
20260831225558 82 0 0.0 3.0 0.00 0.00 0.00 47 1014.3
20260831225057 82 261 0.0 4.0 0.00 0.00 0.00 49 1014.2
20260831224605 82 278 0.0 4.0 0.00 0.00 0.00 48 1014.3
20260831224058 82 0 0.0 4.0 0.00 0.00 0.00 48 1014.4
20260831223558 82 267 1.0 3.0 0.00 0.00 0.00 48 1014.2
20260831223107 82 329 0.0 4.0 0.00 0.00 0.00 49 1014.3
20260831222600 82 297 1.0 4.0 0.00 0.00 0.00 50 1014.3
20260831222057 82 323 1.0 5.0 0.00 0.00 0.00 49 1014.3
20260831221610 82 331 0.0 5.0 0.00 0.00 0.00 50 1014.3
20260831221101 82 324 0.0 4.0 0.00 0.00 0.00 49 1014.3
20260831220556 82 325 1.0 4.0 0.00 0.00 0.00 48 1014.3
20260831220104 82 302 1.0 4.0 0.00 0.00 0.00 49 1014.3
20260831215558 83 321 1.0 4.0 0.00 0.00 0.00 49 1014.3
20260831215055 83 351 0.0 4.0 0.00 0.00 0.00 50 1014.3
20260831214600 83 44 1.0 4.0 0.00 0.00 0.00 50 1014.4
20260831214054 83 269 0.0 4.0 0.00 0.00 0.00 50 1014.3
20260831213557 83 0 0.0 4.0 0.00 0.00 0.00 51 1014.3
20260831213059 83 0 0.0 4.0 0.00 0.00 0.00 52 1014.3
20260831212559 83 272 0.0 5.0 0.00 0.00 0.00 50 1014.4
20260831212102 83 286 1.0 5.0 0.00 0.00 0.00 51 1014.4
20260831211559 83 0 1.0 4.0 0.00 0.00 0.00 52 1014.5
20260831211058 84 270 0.0 4.0 0.00 0.00 0.00 51 1014.6
20260831210554 84 0 1.0 3.0 0.00 0.00 0.00 51 1014.5
20260831205601 84 215 0.0 4.0 0.00 0.00 0.00 51 1014.6
20260831205057 84 0 0.0 5.0 0.00 0.00 0.00 50 1014.6
20260831204558 84 284 2.0 5.0 0.00 0.00 0.00 47 1014.6
20260831204057 84 0 1.0 4.0 0.00 0.00 0.00 44 1014.5
20260831203557 84 294 0.0 3.0 0.00 0.00 0.00 48 1014.5
20260831203104 84 0 0.0 6.0 0.00 0.00 0.00 46 1014.4
20260831202558 84 273 0.0 6.0 0.00 0.00 0.00 45 1014.4
20260831202058 85 264 2.0 6.0 0.00 0.00 0.00 46 1014.3
20260831201604 84 266 0.0 4.0 0.00 0.00 0.00 48 1014.5
20260831201058 84 255 1.0 4.0 0.00 0.00 0.00 49 1014.4
20260831200558 84 267 1.0 4.0 0.00 0.00 0.00 50 1014.4
20260831195558 85 225 0.0 4.0 0.00 0.00 0.00 53 1014.4
20260831195057 85 248 1.0 4.0 0.00 0.00 0.00 53 1014.4
20260831194639 84 251 1.0 7.0 0.00 0.00 0.00 55 1014.4
20260831194057 85 249 2.0 7.0 0.00 0.00 0.00 53 1014.4
20260831193558 85 0 0.0 4.0 0.00 0.00 0.00 54 1014.4
20260831193058 85 360 1.0 4.0 0.00 0.00 0.00 51 1014.4
20260831192558 85 272 1.0 4.0 0.00 0.00 0.00 51 1014.4
20260831192058 85 0 1.0 6.0 0.00 0.00 0.00 53 1014.4
20260831191606 86 263 1.0 6.0 0.00 0.00 0.00 53 1014.4
20260831191058 86 267 0.0 6.0 0.00 0.00 0.00 54 1014.4
20260831190558 86 0 1.0 4.0 0.00 0.00 0.00 54 1014.4
20260831190123 85 0 0.0 3.0 0.00 0.00 0.00 53 1014.4
20260831185558 85 257 0.0 6.0 0.00 0.00 0.00 53 1014.3
20260831185057 85 0 1.0 6.0 0.00 0.00 0.00 47 1014.3
20260831184611 85 0 2.0 6.0 0.00 0.00 0.00 46 1014.3
20260831184057 85 272 0.0 4.0 0.00 0.00 0.00 47 1014.2
20260831183557 85 256 1.0 4.0 0.00 0.00 0.00 45 1014.2
20260831183112 85 320 1.0 4.0 0.00 0.00 0.00 46 1014.2
20260831182601 85 264 1.0 4.0 0.00 0.00 0.00 48 1014.2
20260831182057 84 292 1.0 4.0 0.00 0.00 0.00 49 1014.3
20260831181606 84 261 0.0 3.0 0.00 0.00 0.00 51 1014.3
20260831181058 84 0 0.0 4.0 0.00 0.00 0.00 49 1014.2
20260831180558 84 326 1.0 4.0 0.00 0.00 0.00 49 1014.2
20260831180105 84 13 0.0 4.0 0.00 0.00 0.00 51 1014.2
20260831175600 84 296 0.0 4.0 0.00 0.00 0.00 50 1014.3
20260831175058 83 352 1.0 4.0 0.00 0.00 0.00 49 1014.2
20260831174633 83 336 2.0 5.0 0.00 0.00 0.00 52 1014.3
20260831174057 82 284 1.0 5.0 0.00 0.00 0.00 55 1014.3
20260831173558 82 355 1.0 9.0 0.00 0.00 0.00 56 1014.3
20260831173102 82 288 2.0 9.0 0.00 0.00 0.00 57 1014.4
20260831172558 82 12 2.0 6.0 0.00 0.00 0.00 56 1014.3
20260831172057 81 10 0.0 9.0 0.00 0.00 0.00 58 1014.3
20260831171604 81 259 2.0 9.0 0.00 0.00 0.00 57 1014.3
20260831171058 81 33 3.0 9.0 0.00 0.00 0.00 50 1014.3
20260831170558 81 355 3.0 8.0 0.00 0.00 0.00 50 1014.4
20260831170120 81 5 0.0 4.0 0.00 0.00 0.00 52 1014.5
20260831165559 81 0 1.0 4.0 0.00 0.00 0.00 53 1014.5
20260831165058 80 23 1.0 4.0 0.00 0.00 0.00 56 1014.5
20260831164600 80 247 1.0 3.0 0.00 0.00 0.00 56 1014.6
20260831164102 80 0 0.0 6.0 0.00 0.00 0.00 56 1014.7
20260831163558 79 28 0.0 7.0 0.00 0.00 0.00 59 1014.7
20260831163106 79 51 2.0 7.0 0.00 0.00 0.00 55 1014.6
20260831162559 78 314 2.0 5.0 0.00 0.00 0.00 56 1014.6
20260831162058 78 0 1.0 4.0 0.00 0.00 0.00 58 1014.6
20260831161606 78 270 1.0 5.0 0.00 0.00 0.00 58 1014.6
20260831161058 78 28 1.0 7.0 0.00 0.00 0.00 59 1014.6
20260831160558 78 0 2.0 7.0 0.00 0.00 0.00 57 1014.5
20260831160100 78 339 2.0 8.0 0.00 0.00 0.00 59 1014.6
20260831155559 77 319 2.0 8.0 0.00 0.00 0.00 62 1014.5
20260831155057 76 0 2.0 10.0 0.00 0.00 0.00 60 1014.5
20260831154621 77 327 4.0 10.0 0.00 0.00 0.00 57 1014.4
20260831154057 77 342 3.0 9.0 0.00 0.00 0.00 56 1014.3
20260831153635 76 5 3.0 8.0 0.00 0.00 0.00 58 1014.2
20260831153114 76 315 1.0 10.0 0.00 0.00 0.00 68 1014.2
20260831152600 75 13 2.0 10.0 0.00 0.00 0.00 64 1014.2
20260831152100 74 22 3.0 9.0 0.00 0.00 0.00 63 1014.2
20260831151612 74 259 1.0 8.0 0.00 0.00 0.00 66 1014.2
20260831151100 73 341 2.0 7.0 0.00 0.00 0.00 68 1014.2
20260831150559 72 0 2.0 7.0 0.00 0.00 0.00 69 1014.0
20260831145559 70 348 1.0 7.0 0.00 0.00 0.00 81 1013.8
20260831145101 69 42 1.0 8.0 0.00 0.00 0.00 85 1013.8
20260831144607 68 360 3.0 8.0 0.00 0.00 0.00 88 1013.8
20260831144101 68 355 1.0 6.0 0.00 0.00 0.00 90 1013.8
20260831143600 67 319 1.0 4.0 0.00 0.00 0.00 91 1013.7
20260831143102 67 0 1.0 4.0 0.00 0.00 0.00 91 1013.7
20260831142600 67 318 0.0 3.0 0.00 0.00 0.00 91 1013.8
20260831142059 67 0 0.0 4.0 0.00 0.00 0.00 91 1013.8
20260831141605 67 0 1.0 4.0 0.00 0.00 0.00 91 1013.7
20260831141059 66 0 0.0 4.0 0.00 0.00 0.00 90 1013.7
20260831140601 66 0 0.0 4.0 0.00 0.00 0.00 90 1013.6
20260831135600 66 327 0.0 5.0 0.00 0.00 0.00 90 1013.6
20260831135100 66 0 0.0 5.0 0.00 0.00 0.00 90 1013.5
20260831134614 66 333 0.0 4.0 0.00 0.00 0.00 90 1013.5
20260831134059 65 329 1.0 4.0 0.00 0.00 0.00 90 1013.6
20260831133559 65 0 0.0 3.0 0.00 0.00 0.00 89 1013.5
20260831133105 65 0 0.0 3.0 0.00 0.00 0.00 89 1013.2
20260831132600 65 0 0.0 2.0 0.00 0.00 0.00 89 1013.1
20260831132058 65 0 0.0 2.0 0.00 0.00 0.00 89 1013.0
20260831131607 65 0 0.0 2.0 0.00 0.00 0.00 89 1012.7
20260831131058 65 0 0.0 2.0 0.00 0.00 0.00 89 1012.8
20260831130603 65 13 0.0 2.0 0.00 0.00 0.00 89 1012.6
20260831130106 65 0 0.0 3.0 0.00 0.00 0.00 89 1012.4
20260831125559 65 0 0.0 3.0 0.00 0.00 0.00 89 1012.5
20260831125100 65 0 0.0 3.0 0.00 0.00 0.00 89 1012.4
20260831124611 65 0 0.0 3.0 0.00 0.00 0.00 89 1012.3
20260831124059 65 0 0.0 3.0 0.00 0.00 0.00 89 1012.3
20260831123559 65 0 0.0 3.0 0.00 0.00 0.00 89 1012.3
20260831123057 65 0 0.0 2.0 0.00 0.00 0.00 88 1012.1
20260831122603 65 0 0.0 2.0 0.00 0.00 0.00 88 1012.1
20260831122054 65 360 0.0 1.0 0.00 0.00 0.00 88 1012.1
20260831121621 65 0 0.0 2.0 0.00 0.00 0.00 88 1012.1
20260831121054 65 314 0.0 3.0 0.00 0.00 0.00 88 1011.8
20260831120556 65 0 0.0 3.0 0.00 0.00 0.00 88 1011.8
20260831120104 65 269 0.0 3.0 0.00 0.00 0.00 88 1011.7
20260831115555 65 0 0.0 1.0 0.00 0.00 0.00 87 1011.6
20260831115101 65 0 0.0 0.0 0.00 0.00 0.00 87 1011.4
20260831114605 65 0 0.0 0.0 0.00 0.00 0.00 87 1011.5
20260831114057 65 0 0.0 0.0 0.00 0.00 0.00 87 1011.4
20260831113558 65 0 0.0 0.0 0.00 0.00 0.00 87 1011.5
20260831113110 65 0 0.0 0.0 0.00 0.00 0.00 87 1011.4
20260831112558 65 0 0.0 0.0 0.00 0.00 0.00 87 1011.3
20260831112057 65 0 0.0 0.0 0.00 0.00 0.00 88 1011.2
20260831111600 65 0 0.0 0.0 0.00 0.00 0.00 88 1011.1
20260831111054 65 0 0.0 0.0 0.00 0.00 0.00 88 1011.0
20260831110557 66 0 0.0 0.0 0.00 0.00 0.00 88 1010.9
20260831110104 66 0 0.0 0.0 0.00 0.00 0.00 88 1010.8
20260831105601 66 0 0.0 0.0 0.00 0.00 0.00 87 1010.6
20260831105058 66 0 0.0 0.0 0.00 0.00 0.00 87 1010.5